Weather History for KNQA - November, 2013

Change the Weather History Date:

Friday, November 29, 2013

  Actual Average Record
Temperature  
Mean Temperature 40 °F -  
Max Temperature 55 °F 56 °F 75 °F (1998)
Min Temperature 24 °F 39 °F 24 °F (2013)
Degree Days  
Heating Degree Days 26    
Moisture  
Dew Point 27 °F    
Average Humidity 74    
Maximum Humidity 93    
Minimum Humidity 38    
Precipitation  
Precipitation 0.00 in - - ()
Sea Level Pressure  
Sea Level Pressure 30.50 in    
Wind  
Wind Speed 1 mph (ESE)    
Max Wind Speed 6 mph    
Max Gust Speed -    
Visibility 10 miles    
Events      
Averages and records for this station are not official NWS values.
T = Trace of Precipitation, MM = Missing Value Source: NWS Daily Summary

Daily Weather History Graph

Daily Weather History Graph

Search for Another Location

Airport or City:

Trip Planner

Search our weather history database for the weather conditions in past years. The results will help you decide how hot, cold, wet, or windy it might be!

Date:

Astronomy

Nov. 29, 2013 Rise Set
Actual Time 6:48 AM CST 4:47 PM CST
Civil Twilight 6:20 AM CST 5:15 PM CST
Nautical Twilight 5:49 AM CST 5:46 PM CST
Astronomical Twilight 5:18 AM CST 6:17 PM CST
Moon 3:01 AM CST (11/29) 2:25 PM CST (11/29)
Length of Visible Light 10h 54m
Length of Day
9h 58m
Waning Crescent, 14% of the Moon is Illuminated
Nov 29
Waning Crescent
Dec 2
New
Dec 9
First Quarter
Dec 17
Full
Dec 25
Last Quarter

Hourly Weather History & Observations

Time (CST) Temp. Windchill Dew Point Humidity Pressure Visibility Wind Dir Wind Speed Gust Speed Precip Events Conditions
12:55 AM 28.4 °F - 24.8 °F 86% 30.48 in 10.0 mi Calm Calm - N/A   Clear
1:55 AM 26.6 °F - 24.8 °F 93% 30.48 in 10.0 mi Calm Calm - N/A   Clear
2:15 AM 26.6 °F 22.6 °F 24.8 °F 93% 30.50 in 10.0 mi ESE 3.5 mph - N/A   Clear
2:35 AM 28.4 °F - 24.8 °F 86% 30.50 in 10.0 mi Calm Calm - N/A   Clear
2:55 AM 26.6 °F 22.6 °F 24.8 °F 93% 30.50 in 10.0 mi ESE 3.5 mph - N/A   Clear
3:15 AM 26.6 °F - 24.8 °F 93% 30.49 in 10.0 mi Calm Calm - N/A   Clear
3:35 AM 26.6 °F - 24.8 °F 93% 30.50 in 10.0 mi Calm Calm - N/A   Clear
3:55 AM 26.6 °F - 24.8 °F 93% 30.51 in 10.0 mi Calm Calm - N/A   Clear
4:15 AM 26.6 °F - 24.8 °F 93% 30.51 in 10.0 mi Calm Calm - N/A   Clear
4:35 AM 26.6 °F - 24.8 °F 93% 30.51 in 10.0 mi Calm Calm - N/A   Clear
4:55 AM 26.6 °F - 24.8 °F 93% 30.52 in 10.0 mi Calm Calm - N/A   Clear
5:30 AM 26.6 °F - 24.8 °F 93% 30.53 in 10.0 mi Calm Calm - N/A   Clear
5:55 AM 26.6 °F - 24.8 °F 93% 30.53 in 10.0 mi Calm Calm - N/A   Clear
6:55 AM 24.8 °F - 23.0 °F 93% - 10.0 mi Calm Calm - N/A   Clear
7:55 AM 30.2 °F - 26.6 °F 86% 30.55 in 10.0 mi Calm Calm - N/A   Partly Cloudy
8:55 AM 33.8 °F - 28.4 °F 81% - 10.0 mi Calm Calm - N/A   Partly Cloudy
8:56 AM 33.8 °F - 28.4 °F 81% 30.56 in 10.0 mi Calm Calm - N/A   Partly Cloudy
9:51 AM 42.8 °F - 30.2 °F 61% 30.56 in 10.0 mi Calm Calm - N/A   Partly Cloudy
10:55 AM 48.2 °F - 30.2 °F 50% 30.56 in 10.0 mi SE 5.8 mph - N/A   Partly Cloudy
11:55 AM 51.8 °F - 30.2 °F 44% 30.53 in 10.0 mi ESE 4.6 mph - N/A   Clear
12:52 PM 53.6 °F - 30.2 °F 41% 30.50 in 10.0 mi Calm Calm - N/A   Clear
1:53 PM 55.4 °F - 30.2 °F 38% 30.49 in 10.0 mi Calm Calm - N/A   Clear
2:50 PM 55.4 °F - 30.2 °F 38% 30.48 in 10.0 mi Calm Calm - N/A   Partly Cloudy
3:50 PM 55.4 °F - 30.2 °F 38% 30.47 in 10.0 mi Calm Calm - N/A   Partly Cloudy
4:53 PM 51.8 °F - 30.2 °F 44% 30.46 in 10.0 mi Calm Calm - N/A   Partly Cloudy
5:55 PM 44.6 °F - 30.2 °F 57% 30.46 in 10.0 mi Calm Calm - N/A   Partly Cloudy
6:55 PM 44.6 °F - 30.2 °F 57% 30.45 in 10.0 mi Calm Calm - N/A   Partly Cloudy
7:55 PM 42.8 °F - 30.2 °F 61% 30.45 in 10.0 mi Calm Calm - N/A   Partly Cloudy
8:55 PM 39.2 °F - 30.2 °F 70% - 10.0 mi Calm Calm - N/A   Partly Cloudy
9:55 PM 37.4 °F - 28.4 °F 70% 30.45 in 10.0 mi Calm Calm - N/A   Clear
10:55 PM 32.0 °F 28.7 °F 28.4 °F 87% 30.44 in 10.0 mi East 3.5 mph - N/A   Clear
11:55 PM 33.8 °F - 28.4 °F 81% 30.44 in 10.0 mi Calm Calm - N/A   Clear